OT-FOREST-3 BJOERNTBW

operational
NORAD ID: 62682 Int'l Des: 2025-009 Owner: ORORA Country: D
LEOCIRCULARRETROGRADESSO

关于 OT-FOREST-3 BJOERNTBW

正在加载描述...

实时位置

正在加载3D地球...

即将过境

高度历史

Altitude vs Time

uPlot chart will show altitude changes over time

两行轨道根数

1 62682U 25009CB 25340.91431260 .00007359 00000-0 32609-3 0 9997
2 62682 97.4092 58.1115 0004143 310.2552 49.8321 15.21909592107163
Epoch: Dec 6, 2025 • Age: 19 hours

当前状态

高度 502.0 km
速度 7.62 km/s
星下点 21.02°N, 84.76°E
发射日期 Jan 14, 2025
运行时间 0.8 years
类型 other

技术详情

分类 Payload
质量 15.00 kg
干质量 15.00 kg
总质量 15.00 kg
长度 0.40 m
直径 0.20 m
跨度 0.40 m
形状 Box
制造商 ORORA
平台类型 Cubesat 8U
阶段状态 In Orbit
所有者/国家 ORORA/D

大型星座

Loading constellations...